RH
53 53 53 53 51 50 49 48 48 47 44 43 40 37 35 34 35 36 37 38 38 39 38 38 38 38 38 38 39 38 38 39 38 36 36 36 35 33 32 31 31 31 30 30 29 29 29 28 28 27 27 26 25 25 25 24 23 22 21 19 19 18 18 17 17 17 17 17 17 21 22 20 19 19 20 21 21 19 20 20 19 19 19 19 20 20 20 21 22 26 30 31 28 25 24 25 25
38 38 37 37 35 34 34 34 34 34 33 33 30 28 28 28 28 29 30 31 31 32 32 32 32 33 33 33 34 35 35 36 35 34 34 34 33 31 30 29 28 28 28 27 27 26 26 25 25 24 24 23 22 23 22 20 19 19 18 17 17 17 17 17 17 17 17 18 20 21 20 20 20 21 23 22 20 19 20 19 20 19 19 19 20 20 21 24 26 30 33 30 26 24 24 25 25
26 26 25 25 24 24 24 23 23 24 24 24 22 21 21 21 22 23 24 25 26 26 26 26 27 27 27 28 29 29 30 30 30 30 30 29 29 28 27 26 26 25 25 25 24 23 23 22 22 22 21 20 20 20 19 18 18 18 18 17 17 17 17 18 18 18 20 21 21 20 20 20 20 23 24 21 19 20 20 19 20 19 19 22 24 24 24 27 28 31 31 28 25 24 25 26 27
23 23 23 22 22 22 22 22 22 22 22 21 20 20 20 20 20 20 21 22 22 22 22 22 23 23 24 24 24 25 26 26 26 26 25 25 25 24 24 23 23 23 22 22 22 22 21 20 19 19 19 19 19 19 19 18 19 19 19 18 18 18 18 20 20 20 22 22 20 20 20 20 22 25 24 20 20 19 19 20 21 22 25 29 32 28 26 28 28 30 29 27 25 25 27 28 29
24 24 24 23 23 23 23 23 23 23 22 22 21 21 21 20 20 21 21 21 22 21 21 21 22 22 22 23 23 23 23 23 23 23 23 22 22 22 21 21 21 21 20 20 21 21 21 19 19 19 19 19 19 19 19 19 20 19 19 19 19 19 19 20 20 20 22 21 20 20 20 23 25 24 21 20 19 20 23 25 26 28 30 33 33 30 28 27 28 31 29 27 26 27 29 30 31
26 26 25 25 25 24 24 24 24 23 23 23 22 22 22 21 21 22 22 22 22 22 22 22 22 22 22 23 22 22 22 22 22 21 21 21 21 20 20 20 20 20 20 20 20 21 20 21 21 20 20 20 19 20 19 20 20 19 20 19 19 19 19 19 20 21 21 21 21 21 23 24 24 21 21 20 21 27 31 29 30 32 32 32 31 31 28 27 31 32 28 25 26 30 31 31 31
29 29 28 27 27 26 27 26 26 25 24 24 23 23 23 22 22 22 23 23 23 23 24 24 24 24 26 26 25 25 24 22 22 22 21 21 21 20 20 20 20 20 20 20 20 21 20 21 21 20 20 20 20 20 20 20 20 20 19 19 19 19 19 20 20 20 20 21 21 23 24 24 24 23 24 25 29 35 36 34 35 36 35 34 31 31 29 28 31 29 25 25 28 30 30 31 31
31 31 30 30 30 29 30 29 28 27 26 25 24 24 24 24 24 24 24 25 26 26 26 26 26 26 28 28 27 28 25 23 23 22 22 22 21 22 21 21 21 21 20 20 20 21 20 20 20 20 20 19 20 19 19 19 19 19 18 19 19 19 20 20 20 20 20 22 23 25 25 25 26 27 29 33 35 37 37 36 36 35 36 35 32 31 30 29 27 25 26 28 30 29 31 34 33
32 32 31 31 31 32 32 32 30 29 28 27 26 26 26 27 27 27 27 27 28 28 28 27 27 27 27 27 26 26 25 24 24 23 23 23 22 22 22 21 21 21 20 20 20 20 20 20 20 20 19 19 19 19 19 19 19 18 19 19 19 22 22 20 20 20 23 28 28 28 27 27 28 31 36 35 32 34 36 35 33 36 39 35 32 31 29 27 25 26 30 30 30 28 33 34 34
34 33 33 32 32 32 32 32 31 30 29 28 27 27 28 29 29 29 29 29 29 29 29 27 27 28 27 27 26 26 25 25 24 24 23 22 23 22 22 22 21 21 21 20 20 20 20 20 20 19 19 19 19 19 19 18 18 18 19 20 21 23 21 20 21 26 34 36 32 31 30 29 30 33 33 30 29 34 37 36 36 42 39 31 28 28 27 27 27 29 31 31 30 31 34 32 36
35 34 34 33 33 33 32 32 32 31 29 28 27 27 29 30 30 30 29 29 29 29 29 28 28 27 27 27 26 25 25 25 24 24 23 23 23 22 22 22 21 21 21 21 20 20 20 20 19 19 19 19 19 18 19 20 20 23 26 27 28 25 24 24 29 39 43 36 30 28 27 28 29 28 28 28 28 31 35 37 42 44 33 27 29 29 30 29 29 29 30 32 30 33 32 31 40
33 33 33 33 33 33 32 32 31 31 29 28 27 28 30 30 30 29 29 29 29 29 28 28 27 27 26 26 26 26 25 25 25 24 23 23 23 22 22 22 22 22 21 20 20 20 20 20 20 19 19 18 18 19 22 24 25 30 33 34 33 29 29 30 32 37 34 28 25 23 24 25 23 23 27 30 29 31 38 41 44 41 30 31 33 31 33 31 30 31 33 34 33 33 30 36 43
31 31 31 31 31 31 31 31 30 30 28 27 27 28 29 29 30 29 29 29 28 28 27 27 27 26 26 26 26 25 26 26 25 24 23 22 22 22 22 22 22 21 21 21 21 21 20 20 20 20 20 20 20 22 25 26 27 29 31 30 29 29 29 28 25 25 24 22 22 22 23 21 22 27 29 30 33 37 42 43 41 38 32 36 35 32 36 32 31 35 35 35 37 31 30 45 46
29 29 29 28 29 29 29 29 28 28 26 25 26 27 28 28 29 28 28 28 28 28 27 27 26 27 27 28 29 28 27 26 24 23 23 22 22 22 22 22 21 20 20 21 21 22 21 21 21 20 21 22 22 26 28 28 28 28 28 25 23 27 26 23 21 20 19 21 27 28 25 26 27 28 29 32 34 37 44 45 43 43 40 37 33 32 36 32 31 37 35 35 34 27 35 49 42
26 26 26 26 27 27 26 26 25 25 24 24 25 26 27 28 28 27 28 27 27 27 27 27 26 27 27 28 31 30 27 25 25 24 23 22 22 22 21 21 20 20 20 21 22 21 21 21 21 20 20 21 22 24 24 29 30 25 25 23 21 22 20 19 19 18 18 22 27 26 28 34 32 34 40 38 37 43 52 49 45 51 47 38 34 33 34 30 30 32 31 31 29 29 41 44 34
22 22 23 23 24 24 24 24 23 23 22 23 24 25 26 27 27 27 27 27 28 27 27 28 28 27 27 29 30 28 25 25 25 24 23 22 21 21 20 21 20 21 21 21 21 20 20 20 20 20 20 20 21 22 21 27 28 21 21 22 20 18 17 18 17 18 18 18 18 19 24 31 42 55 54 48 54 56 52 46 44 49 46 38 38 36 32 30 28 27 28 28 29 36 41 35 30
18 18 19 19 20 20 20 20 20 21 21 22 23 24 25 26 26 26 27 27 28 27 28 28 27 27 27 28 29 27 25 25 25 23 22 22 21 21 21 21 21 21 20 20 19 19 19 19 19 19 20 18 20 21 21 22 20 18 18 17 17 16 16 16 16 16 16 18 18 18 23 39 64 74 65 63 67 57 45 43 43 44 43 39 39 34 29 28 27 26 27 26 31 38 35 30 29
16 16 17 17 17 17 17 17 18 18 19 20 21 22 23 23 24 24 25 25 27 27 27 27 26 26 25 25 26 25 25 24 24 23 22 22 22 22 22 21 21 20 19 19 18 18 18 18 19 18 18 17 17 18 20 19 16 16 15 16 16 14 15 15 15 16 17 18 15 24 38 56 78 81 76 67 56 51 47 45 44 44 44 40 35 31 27 26 25 25 25 26 31 34 32 30 30
17 17 17 16 16 16 16 16 17 18 18 19 20 21 20 21 21 21 22 23 24 24 24 24 24 23 23 24 24 23 23 23 22 22 22 22 22 21 21 20 19 19 18 18 17 17 17 16 17 17 17 16 16 15 16 16 15 14 12 17 18 14 16 15 16 16 18 19 26 52 54 44 59 67 62 48 39 48 46 41 44 48 43 34 31 28 26 24 23 25 25 27 29 31 33 31 31
18 17 17 16 16 16 16 17 17 18 18 19 19 20 19 19 19 19 20 20 21 22 21 21 21 21 21 22 22 22 21 22 22 22 22 21 20 20 19 19 18 18 17 17 16 16 15 15 15 15 15 15 14 14 13 13 14 14 13 17 18 14 13 15 18 13 19 32 42 61 47 26 41 44 37 35 36 43 43 42 42 41 34 26 27 26 24 24 24 25 25 27 29 32 33 31 31
18 18 17 16 16 16 16 17 17 18 18 18 19 19 19 18 19 19 19 20 20 20 20 19 20 19 20 21 21 21 20 21 20 20 19 19 18 18 17 17 17 16 15 15 15 14 14 13 13 13 14 14 13 12 12 12 13 13 13 15 15 12 12 14 14 9 24 39 34 39 33 23 29 24 26 36 36 37 43 42 30 27 26 24 27 25 24 25 24 25 25 28 30 32 31 29 31
19 18 17 17 16 17 17 17 17 17 17 18 18 18 19 19 19 19 20 20 20 20 20 20 20 19 20 21 20 20 19 19 18 18 17 17 17 16 16 16 15 15 14 14 14 13 13 13 13 13 13 13 13 12 11 12 12 11 11 13 12 12 13 12 14 23 41 41 25 24 24 20 21 22 27 31 29 26 27 27 23 25 26 25 25 24 25 25 26 28 28 30 31 31 32 31 32
20 19 18 18 18 19 18 18 18 18 18 18 18 18 19 19 19 20 20 20 20 20 20 20 20 20 20 20 20 19 18 18 17 17 17 16 16 16 15 15 15 14 14 14 14 14 13 13 13 13 13 13 12 11 11 11 11 11 11 12 12 13 13 15 24 35 38 28 18 17 19 19 17 18 21 20 19 18 17 20 22 24 23 22 24 25 27 29 31 34 33 32 32 34 34 33 34
22 21 20 21 21 21 21 20 20 19 19 19 18 18 18 19 19 19 19 19 19 19 19 19 19 19 19 19 19 18 18 18 18 17 17 16 16 15 15 15 14 14 14 14 14 14 13 13 13 13 12 12 12 11 11 11 11 11 13 12 12 13 13 16 22 22 18 15 15 17 26 35 28 20 17 16 17 16 18 20 19 21 22 22 23 29 36 40 41 38 37 35 36 45 44 37 37
21 21 21 21 20 20 21 20 20 20 20 19 19 18 18 18 18 18 18 18 18 18 18 19 18 19 19 18 18 18 18 18 18 17 17 16 16 16 16 15 15 14 15 15 15 14 14 14 13 13 13 12 12 11 11 11 11 10 12 11 10 13 13 13 14 13 13 14 21 31 50 68 54 28 16 15 19 19 24 25 26 26 21 21 27 39 46 47 46 39 39 42 43 56 63 53 47
18 18 18 18 18 18 18 19 19 19 19 19 19 19 19 18 18 18 18 18 17 18 18 18 18 18 18 18 18 18 18 18 17 17 17 17 17 16 16 15 16 16 16 16 15 15 14 14 13 13 13 12 12 12 11 11 11 11 11 11 11 11 11 12 11 12 13 15 29 41 54 67 50 26 22 23 23 29 37 36 44 50 39 40 47 51 56 63 68 56 44 47 50 59 74 73 63
16 17 17 16 17 16 17 17 17 17 17 18 18 18 18 18 18 18 18 18 18 17 17 17 17 17 18 17 18 17 17 17 17 17 17 17 16 16 16 16 16 16 16 16 15 15 14 14 13 13 13 13 12 12 12 11 11 11 11 11 11 11 11 11 11 11 12 14 28 32 32 39 29 25 36 35 28 37 46 41 60 85 80 76 70 55 67 90 97 84 60 50 55 61 76 89 81
19 19 18 18 17 17 17 17 17 17 17 17 17 17 18 18 18 18 18 18 18 18 17 18 17 17 17 17 17 17 17 17 17 17 16 16 16 16 16 16 16 16 15 15 14 14 14 13 13 13 13 12 13 12 12 12 12 11 12 12 11 12 11 12 12 12 13 14 19 19 19 23 19 23 32 31 28 31 38 38 53 89 101 97 88 75 87 102 101 101 88 70 67 66 78 99 95
23 22 22 21 20 20 19 19 19 19 19 19 19 19 18 18 18 18 18 18 18 18 17 17 17 17 17 17 17 17 17 16 16 16 16 16 16 16 16 15 15 14 14 14 14 14 13 13 13 13 13 12 12 12 12 12 12 12 12 13 13 13 13 14 15 15 16 17 18 18 20 22 22 26 26 28 36 33 36 38 41 78 103 100 100 99 101 103 98 104 103 91 85 77 80 98 100
26 26 25 24 23 23 22 22 22 22 22 22 22 22 21 20 20 19 19 18 18 18 18 18 17 17 17 17 17 17 16 16 16 16 16 16 15 15 15 14 14 14 14 13 13 13 13 13 13 13 13 13 13 13 13 13 14 15 15 16 16 17 18 18 20 20 22 22 25 30 28 27 29 29 33 49 65 57 45 40 48 83 104 97 102 103 98 101 100 100 102 100 97 93 92 98 101
31 30 29 28 27 25 26 26 26 26 27 28 28 26 25 23 21 20 20 19 19 19 19 19 18 17 17 17 17 16 16 16 16 16 15 15 14 14 14 14 14 14 14 14 13 14 13 14 14 13 13 14 15 15 17 18 19 20 20 22 22 23 24 24 25 26 28 27 31 37 34 34 36 33 48 77 89 76 59 47 55 89 105 97 100 102 99 100 101 101 102 101 100 101 101 100 101
38 37 37 37 34 32 35 34 34 36 36 39 39 33 30 28 25 23 23 22 21 20 20 20 19 18 18 18 17 17 17 16 16 16 15 15 14 14 15 15 15 15 15 15 15 15 15 16 17 18 18 18 19 20 22 23 25 26 26 28 28 29 30 30 32 33 35 35 36 40 38 40 41 38 49 71 78 70 63 54 49 70 97 102 99 100 101 100 100 104 103 101 100 100 100 100 101
48 49 49 49 46 43 44 44 44 45 46 49 51 43 37 34 31 29 29 29 28 27 25 24 23 23 22 20 20 20 20 20 19 18 17 17 17 18 18 19 18 18 18 18 19 20 20 22 23 25 25 25 26 26 27 28 29 31 31 32 33 34 36 37 39 40 42 44 44 45 47 48 49 50 50 54 57 53 52 57 56 59 76 97 103 99 100 101 100 101 102 101 100 100 100 99 101
60 59 59 60 59 56 54 52 52 53 53 55 57 51 44 43 42 40 40 39 39 37 34 33 31 30 28 27 27 27 27 26 25 24 24 24 24 24 25 25 25 24 24 25 25 26 27 27 28 30 31 32 33 31 31 31 33 35 36 37 38 39 42 44 45 47 49 51 52 54 55 57 58 59 60 57 55 53 49 55 69 71 61 73 96 102 100 100 100 100 100 101 100 101 100 100 101
69 67 66 66 66 64 62 60 58 58 57 57 60 58 56 57 55 53 52 50 50 47 43 41 39 36 35 35 34 33 33 32 31 31 31 31 29 30 30 30 30 30 29 29 29 30 31 32 32 32 34 36 38 37 35 34 35 37 39 42 44 46 48 51 52 54 56 57 60 63 64 66 67 66 67 66 61 59 57 52 64 74 59 54 74 94 102 101 100 101 99 100 101 100 100 100 100
74 75 75 74 72 69 67 65 62 60 59 59 63 67 68 69 68 66 65 63 64 63 56 47 43 42 40 39 40 39 37 35 36 37 35 34 33 32 32 33 34 33 32 31 31 31 33 35 34 34 35 37 40 42 41 40 39 40 43 46 50 54 57 59 60 61 63 65 68 71 72 73 74 73 71 71 68 64 64 60 60 63 62 66 71 79 95 102 100 100 101 101 100 100 100 100 100
78 79 80 80 78 75 72 69 65 63 60 60 65 72 75 77 79 79 75 72 76 81 79 65 53 50 48 46 44 42 42 42 43 43 40 40 39 38 37 37 36 34 33 32 31 32 34 36 37 38 38 39 41 44 46 48 47 46 48 51 55 59 63 65 67 68 69 71 73 74 76 77 76 78 76 75 77 75 71 70 68 65 67 84 94 87 89 100 102 99 101 101 100 101 99 98 100
78 79 80 81 79 77 77 74 71 69 65 63 67 71 76 82 87 88 79 71 75 86 96 91 75 65 63 60 53 48 50 52 53 51 49 50 49 47 43 40 38 37 36 34 33 35 38 39 41 44 44 42 41 42 48 53 55 55 54 56 60 63 66 68 69 71 71 72 74 74 75 78 79 81 82 83 86 86 84 80 77 76 73 82 101 101 95 101 103 99 101 101 100 101 99 98 98
71 74 75 76 75 75 75 74 74 75 73 71 73 75 76 80 83 84 76 67 71 83 97 104 97 88 83 77 69 63 63 66 67 62 57 56 54 52 48 45 44 43 41 38 39 43 46 46 49 50 48 48 45 44 46 51 56 60 61 62 64 66 68 70 72 73 75 76 77 79 80 83 87 90 93 96 98 97 96 95 90 88 84 83 95 102 100 101 102 101 101 100 100 101 100 100 99
61 65 67 68 69 68 67 69 71 73 76 77 80 83 82 80 78 76 72 69 73 83 93 103 108 105 100 97 92 84 81 83 79 71 65 62 60 57 54 53 51 50 47 45 49 54 56 57 58 55 52 52 53 52 52 53 57 61 65 68 70 73 74 76 78 79 82 85 85 86 88 91 97 101 104 105 106 106 104 105 104 102 97 91 93 101 102 100 102 101 100 100 100 101 101 101 100
58 60 62 61 61 62 62 65 68 70 75 75 78 84 82 81 81 79 80 80 82 88 92 99 106 108 105 105 105 100 98 97 87 76 73 73 72 68 63 61 57 53 50 50 58 65 67 69 68 62 59 60 62 64 66 67 69 68 69 71 73 79 83 84 87 89 90 92 94 96 97 101 106 107 107 106 107 109 106 105 106 106 105 97 94 98 101 101 101 100 101 101 101 101 101 100 100
61 61 61 59 58 60 60 62 66 69 72 71 80 87 78 78 86 85 87 87 84 89 95 99 105 108 106 104 103 102 100 100 93 85 81 81 80 79 76 72 66 60 54 50 58 67 70 75 79 74 70 71 73 77 82 87 89 88 83 81 81 84 90 94 96 98 101 102 105 107 106 106 108 106 105 105 106 106 104 102 102 103 104 99 93 92 95 99 101 100 102 103 101 101 100 100 101
70 67 66 64 64 66 64 63 65 67 68 71 82 87 77 80 89 85 85 85 78 79 92 103 108 108 107 105 105 102 97 96 95 92 91 89 85 86 87 82 75 70 62 53 56 64 67 71 79 82 80 80 81 83 88 95 99 99 96 93 93 93 94 97 100 101 102 105 110 113 108 103 103 102 102 104 107 107 104 101 103 104 103 99 94 91 90 92 97 99 101 102 101 100 100 100 101
81 76 76 76 76 78 76 75 75 74 73 74 80 84 78 79 84 77 75 78 75 74 83 95 102 107 109 108 107 106 101 96 95 95 95 93 92 92 90 84 79 75 68 57 56 65 68 67 71 78 81 81 80 81 83 91 98 100 99 97 97 97 93 92 96 99 98 98 104 109 108 105 102 100 100 103 107 109 106 101 103 106 105 100 95 93 90 87 89 94 99 101 101 100 100 100 101
84 78 81 81 80 82 81 83 84 81 81 81 81 83 79 75 77 72 67 70 74 76 80 81 87 97 103 105 107 108 107 102 99 98 95 92 94 96 93 89 85 79 71 60 59 68 68 65 66 71 78 79 79 79 79 84 91 96 98 98 98 99 98 94 93 99 102 99 97 100 105 107 104 101 101 101 103 108 109 105 105 104 105 103 98 95 94 88 81 84 93 99 100 100 99 100 101
80 77 80 77 77 78 77 79 80 78 81 84 82 81 80 79 84 83 76 76 76 76 81 82 84 92 96 100 104 107 110 109 106 103 98 92 89 91 92 92 88 84 78 69 69 73 70 66 66 67 73 79 82 84 85 86 88 92 96 100 102 103 105 103 98 100 104 104 99 96 99 103 105 106 106 102 104 111 111 108 105 102 102 105 101 96 96 92 83 76 82 92 99 100 99 100 101
77 78 80 76 75 75 74 75 74 74 77 80 78 74 76 82 91 94 87 83 81 77 79 84 88 92 95 99 102 105 109 110 108 104 97 90 85 89 94 93 89 89 87 81 79 81 80 78 75 72 76 83 89 93 95 95 96 97 98 100 103 105 106 107 106 105 105 104 103 100 98 99 102 107 109 107 109 114 112 107 106 103 101 103 102 99 96 95 91 80 74 79 89 97 99 101 101
77 81 82 79 78 75 75 75 73 73 75 74 74 69 70 77 86 93 89 83 84 80 77 84 90 94 97 101 104 106 108 107 107 105 100 94 91 94 97 97 95 95 93 91 89 89 91 93 90 86 86 91 98 103 104 104 105 104 103 103 104 105 107 108 107 107 106 103 100 99 97 95 96 101 108 109 108 110 109 107 106 104 102 102 102 101 97 95 95 90 80 71 74 83 92 98 101
82 86 83 80 80 73 72 77 73 75 75 72 75 71 68 73 77 84 86 81 82 79 74 75 79 84 89 95 102 107 109 107 105 105 103 101 101 100 99 98 97 94 91 90 92 92 94 98 98 96 93 93 96 102 106 108 108 106 105 106 106 106 107 108 108 106 105 102 97 95 94 94 94 95 101 107 107 107 109 109 106 103 103 103 103 103 101 97 95 94 87 74 65 67 76 88 97
87 90 85 84 87 79 75 78 75 79 81 75 78 77 75 79 80 79 81 80 80 79 75 70 66 67 70 77 88 96 101 104 105 106 105 103 104 103 101 100 98 94 89 86 86 87 89 94 98 98 97 96 94 94 96 100 103 104 103 103 105 107 107 107 107 106 104 103 100 97 94 94 97 96 96 100 104 107 109 110 108 105 103 102 102 103 104 102 98 96 91 80 68 62 64 74 88
79 82 84 89 93 86 82 83 80 85 86 76 76 79 81 87 86 80 79 81 83 82 79 75 70 66 65 66 73 79 83 89 95 99 102 103 104 104 103 103 102 99 93 87 84 83 83 85 88 91 95 98 98 95 92 92 94 95 97 99 100 102 104 105 105 105 105 104 103 102 100 97 98 99 97 97 99 103 106 109 109 107 105 103 101 102 104 105 102 98 94 88 78 66 59 62 73
65 67 75 81 83 80 78 79 80 82 79 72 72 75 78 81 80 78 79 81 83 83 81 80 77 75 74 72 73 75 76 77 80 82 85 90 95 100 105 106 106 105 99 92 88 88 87 84 82 83 87 92 97 97 94 92 90 89 89 92 94 96 97 98 100 102 103 103 104 105 104 101 98 100 102 101 100 100 101 104 107 107 107 105 104 103 102 103 104 100 95 93 88 77 65 58 60
63 65 70 71 73 75 72 70 71 73 72 68 67 69 70 70 70 71 73 73 73 75 76 77 78 77 76 76 75 76 76 75 74 74 74 77 81 87 97 103 106 107 104 98 94 95 95 92 87 85 87 90 92 94 96 94 92 91 89 88 90 93 94 95 95 97 98 100 102 104 104 103 100 97 97 100 103 103 101 99 101 104 106 104 103 104 103 102 103 101 96 93 92 88 79 65 57
67 67 69 68 70 73 70 65 65 67 67 65 64 66 66 65 64 64 63 63 64 65 66 67 69 69 69 70 70 71 72 72 71 69 69 72 75 79 86 93 96 96 93 91 91 93 95 96 94 91 90 92 91 91 94 95 93 92 91 91 92 92 93 94 96 97 96 95 96 97 97 99 100 98 95 95 98 101 103 101 98 98 101 104 104 103 103 103 103 104 101 96 93 93 89 79 65
73 71 69 68 68 67 65 62 62 61 60 59 60 61 60 60 60 59 56 56 57 59 60 60 60 61 61 62 63 64 65 66 67 66 65 66 70 72 75 81 83 81 78 77 79 81 83 86 88 86 86 91 94 91 91 94 95 95 94 94 95 94 91 92 94 95 92 89 88 88 88 89 92 95 96 95 95 95 98 101 101 97 96 99 102 103 103 103 103 103 103 101 97 95 94 89 80
80 77 72 70 67 65 62 59 58 58 55 54 54 54 56 57 54 53 51 51 53 54 54 55 56 57 57 58 59 60 61 61 62 62 61 62 65 66 66 68 70 70 72 72 71 72 73 75 76 75 74 77 83 86 88 91 96 99 100 98 97 95 91 89 91 90 88 85 84 84 86 88 89 89 91 95 98 98 97 97 98 98 96 93 96 100 102 103 103 103 104 104 101 98 96 94 91
76 74 70 67 64 62 60 57 55 54 53 51 51 54 59 58 54 53 53 51 51 51 51 51 52 53 54 55 55 56 57 57 58 58 58 58 60 61 62 62 61 61 63 64 63 63 65 66 67 67 63 60 63 69 76 83 89 93 94 93 93 91 87 86 86 86 86 85 85 86 87 90 93 93 92 93 95 98 101 101 99 98 96 93 92 94 98 101 103 104 106 106 104 102 99 96 93
71 68 64 62 60 59 59 60 60 58 55 53 52 54 58 57 54 53 52 50 48 47 47 47 47 48 48 49 49 50 50 50 51 51 52 53 53 55 56 57 58 57 56 57 57 57 57 57 58 60 58 55 53 55 60 66 71 73 74 75 78 80 79 80 82 81 81 81 84 88 89 90 92 95 96 95 95 96 98 103 106 105 103 100 97 95 95 95 97 98 101 103 104 104 102 100 96
Wind_Speed
88 89 89 89 89 89 90 89 89 89 89 89 89 88 87 86 85 85 85 86 85 85 85 85 85 85 85 85 86 86 85 85 86 86 85 86 86 85 85 84 84 84 84 84 84 85 85 85 84 84 84 83 84 83 83 83 82 82 82 82 82 81 80 79 78 78 77 77 76 74 74 74 74 74 73 72 72 73 73 73 73 72 72 72 71 71 70 69 68 66 65 63 61 61 60 58 57
88 88 89 89 89 89 90 89 89 89 90 90 90 89 88 87 86 85 86 87 86 86 85 86 86 86 86 86 87 87 87 87 88 87 87 87 87 87 86 86 85 85 85 85 86 86 86 86 85 85 84 84 84 83 83 83 82 82 82 82 81 80 79 79 78 77 77 76 75 74 75 75 75 75 73 73 74 74 74 74 74 73 73 73 72 72 70 68 67 65 63 62 61 61 59 57 56
87 87 88 88 87 88 88 87 87 88 88 89 89 88 87 86 85 84 84 86 86 86 85 85 86 86 86 86 87 87 87 88 88 88 88 88 88 88 87 87 86 86 86 86 86 86 86 86 86 85 84 84 83 83 83 82 82 82 82 82 81 80 79 79 78 78 77 75 75 75 75 75 76 75 74 75 75 75 75 76 75 75 74 73 72 71 69 67 65 64 62 61 61 60 58 56 54
87 88 88 87 87 87 87 86 86 87 88 88 89 87 87 86 85 83 83 85 86 86 85 85 86 86 86 87 87 87 88 89 89 89 88 88 88 88 87 87 87 87 87 87 86 86 86 86 86 85 85 84 84 83 83 83 83 82 83 83 81 81 80 79 79 78 77 76 76 76 76 76 76 75 76 77 77 77 77 77 76 75 74 72 71 70 68 66 64 63 62 61 60 59 56 54 52
89 89 89 88 88 88 88 87 87 88 88 89 90 88 88 87 86 84 83 85 86 87 86 86 86 86 87 87 88 88 88 89 89 89 89 89 89 88 88 88 88 87 87 87 86 86 86 86 86 86 85 85 84 84 83 83 83 83 84 83 82 81 80 79 79 78 77 77 77 77 77 76 76 77 78 78 78 78 78 76 76 74 73 72 71 69 67 65 63 62 61 60 58 56 54 52 51
90 90 90 90 90 89 89 89 89 90 89 90 91 90 90 89 87 86 85 85 87 88 87 87 87 87 88 89 89 89 90 90 90 90 90 90 89 89 89 89 88 88 88 88 87 86 86 86 86 86 86 86 85 84 84 84 84 84 84 83 83 82 80 80 79 78 78 78 78 78 77 76 77 79 79 79 79 78 76 75 75 74 73 72 70 68 66 65 62 61 61 59 56 54 52 51 49
92 92 92 92 91 91 90 90 91 92 91 92 92 91 91 90 89 88 86 87 88 89 89 88 88 88 88 89 89 89 90 91 91 91 91 91 90 90 90 89 89 89 89 89 88 87 87 87 87 87 86 86 85 85 84 84 84 84 84 83 82 82 81 80 79 78 78 79 79 78 77 78 79 79 80 79 77 76 75 75 74 73 72 70 69 67 66 64 62 61 60 57 54 52 51 49 48
94 94 94 93 93 93 92 93 93 93 93 93 94 93 93 91 90 89 89 88 88 89 90 90 90 89 89 89 89 88 90 92 91 91 91 91 91 91 90 90 90 89 89 89 88 88 88 87 87 87 86 86 85 85 84 84 84 84 84 83 83 82 81 80 79 80 80 80 79 78 78 79 79 79 79 76 75 75 75 75 74 73 71 69 68 67 66 64 62 61 58 54 52 51 49 47 47
95 95 95 95 94 94 94 94 95 95 95 95 95 95 93 92 91 91 91 90 89 90 91 92 92 91 91 92 92 91 92 92 91 92 91 91 91 91 91 90 90 90 90 89 88 88 88 88 87 86 86 86 85 85 84 84 84 84 84 84 83 82 81 81 81 81 80 79 79 79 79 79 79 78 76 75 76 76 76 75 74 72 69 68 67 66 65 64 62 58 55 53 51 50 48 46 47
97 96 97 96 96 96 96 96 96 97 97 97 97 95 94 92 92 93 93 92 91 91 92 93 93 93 93 93 93 92 92 92 92 92 92 92 92 91 91 90 90 90 90 89 88 88 87 87 87 86 86 85 85 85 84 85 85 85 85 85 84 83 83 83 82 81 78 77 78 78 79 78 78 77 76 77 77 76 75 75 72 70 68 69 68 65 63 62 59 55 54 53 50 48 47 47 46
98 98 98 98 97 97 97 97 97 98 99 98 98 96 93 93 94 94 94 93 92 92 92 93 94 94 94 94 94 93 93 93 93 93 93 93 92 92 91 91 90 90 90 89 88 88 88 87 87 87 86 85 85 85 85 84 85 84 83 82 81 82 83 82 80 78 77 78 79 79 79 78 78 78 77 77 76 76 75 73 71 70 70 69 66 62 61 60 57 55 54 51 48 47 47 47 45
100 100 100 99 99 99 99 98 99 99 100 100 98 95 93 94 95 95 95 95 94 94 94 94 95 95 95 95 95 94 94 95 94 94 94 94 93 92 91 91 90 90 90 90 89 89 88 88 88 87 86 86 85 85 84 82 82 82 80 80 80 81 81 79 79 79 80 81 81 80 80 79 79 78 77 75 75 74 73 72 70 69 68 66 63 61 58 57 56 54 52 50 48 47 47 46 43
102 102 102 101 100 100 100 100 100 101 102 101 98 95 94 95 96 97 96 96 96 96 96 96 95 96 96 95 96 96 95 95 95 96 96 95 94 93 92 92 91 91 91 91 90 89 89 88 88 87 86 85 84 84 82 82 83 82 82 83 83 83 81 81 82 82 82 82 82 80 79 79 77 75 75 74 72 71 70 69 68 66 64 62 61 59 56 54 54 53 50 50 48 47 47 44 43
103 103 103 102 102 102 102 102 102 103 103 102 99 96 95 95 96 97 97 98 97 97 97 97 96 96 96 96 96 96 96 96 97 97 97 96 95 95 94 94 94 93 93 92 91 90 90 89 88 88 87 85 85 82 80 82 83 83 85 86 85 84 83 84 84 84 83 82 78 76 76 75 74 73 73 72 69 68 66 65 64 62 61 60 60 58 56 54 53 53 52 51 49 47 45 44 43
103 103 104 103 103 103 104 104 104 105 104 102 100 98 97 96 97 98 99 99 98 98 99 98 98 97 97 98 96 96 97 98 99 98 97 97 97 96 96 96 96 95 95 94 93 92 91 90 90 90 89 87 86 85 83 83 82 84 85 85 85 85 86 86 85 83 82 79 77 75 73 70 70 69 67 66 66 64 61 61 61 60 59 60 60 57 55 54 53 53 52 51 49 46 44 43 43
100 101 101 101 102 103 104 105 105 105 104 102 100 100 98 98 98 99 99 100 99 100 100 99 99 99 98 98 97 98 100 100 99 99 99 99 99 98 98 97 97 97 96 95 95 94 93 92 91 90 90 89 87 86 86 84 83 85 85 84 84 85 86 84 84 82 81 80 79 76 72 68 63 59 58 59 60 60 61 63 62 60 61 61 59 57 55 54 52 51 51 49 46 45 44 43 41
96 96 97 97 98 100 101 103 103 103 102 100 99 99 98 98 98 98 99 99 99 101 101 100 101 100 99 98 98 100 101 101 101 101 100 100 100 99 98 98 97 97 97 97 96 95 93 92 90 89 89 88 87 86 85 84 85 86 85 84 84 84 83 82 82 81 79 77 75 73 68 60 52 49 53 57 59 60 63 63 61 60 61 60 58 57 55 53 51 49 47 46 44 44 43 40 38
92 93 93 94 95 96 97 97 97 97 97 96 96 96 96 96 96 96 97 97 98 100 101 102 102 101 101 101 101 102 102 101 101 101 100 100 99 98 97 97 97 97 97 97 95 94 92 90 88 86 86 86 86 85 84 84 85 84 83 82 82 81 80 80 79 75 73 72 71 65 56 47 44 48 54 60 61 60 60 59 58 58 57 56 57 56 54 52 49 46 45 43 41 42 41 38 36
89 89 90 91 92 93 93 92 92 92 91 91 91 93 94 94 93 94 94 95 97 98 100 102 102 102 101 101 101 102 102 101 100 99 98 97 97 96 96 96 96 96 96 94 93 91 89 87 85 83 82 83 83 83 83 82 82 81 80 77 77 77 76 75 73 71 69 67 62 52 49 49 47 52 59 62 60 58 59 59 56 54 53 54 55 55 53 50 47 44 42 41 39 39 38 36 34
86 87 88 89 90 90 89 88 88 88 88 88 89 90 91 91 91 90 91 92 94 96 99 100 100 100 99 99 100 100 99 98 96 95 95 95 95 95 95 94 94 93 92 91 89 87 85 83 81 80 79 79 80 81 81 80 78 77 76 74 74 75 74 71 69 70 64 58 53 49 58 62 54 55 60 59 58 57 56 55 54 53 53 54 54 53 51 49 46 43 41 39 37 37 36 34 33
84 85 86 87 87 87 86 86 86 86 86 86 87 88 89 89 89 88 88 89 90 92 95 96 96 96 95 95 95 95 94 93 94 94 94 95 94 93 91 90 90 89 88 87 85 83 81 80 79 79 78 77 78 78 78 77 76 75 74 73 73 73 72 70 69 69 62 56 55 55 63 65 58 59 60 56 56 54 51 51 54 54 52 51 50 50 49 48 46 43 40 37 36 35 34 32 31
81 83 84 84 84 84 84 84 84 84 84 85 85 85 85 86 86 85 85 86 87 88 90 91 91 91 90 90 92 92 91 92 93 93 93 92 91 89 88 87 87 86 85 83 81 80 79 78 78 77 77 77 77 77 76 75 75 74 74 73 72 71 70 69 66 60 55 55 58 59 62 63 60 59 59 57 57 56 54 53 52 50 48 48 47 48 47 46 45 42 39 36 35 35 32 30 29
79 80 81 80 81 80 81 81 81 82 82 82 82 82 83 83 84 83 83 84 84 85 86 87 87 87 87 88 90 91 90 91 91 90 90 89 88 87 86 85 85 84 82 80 80 80 80 79 78 77 77 77 77 76 75 75 74 74 74 72 71 70 69 66 59 54 55 58 62 61 62 63 61 60 59 59 59 58 55 52 49 47 47 46 45 45 44 43 41 39 37 35 34 34 32 28 28
77 77 77 77 78 78 78 79 79 80 80 80 81 81 81 81 82 82 82 82 83 83 84 85 85 85 86 87 89 90 89 89 89 89 89 88 87 86 85 85 83 82 81 80 81 81 81 80 79 78 77 77 77 76 75 75 74 74 73 72 71 70 69 66 62 62 64 64 63 59 59 61 59 59 59 58 57 55 51 49 48 46 45 44 42 40 39 38 37 36 34 33 32 32 31 28 27
75 75 76 76 77 77 78 79 79 79 79 80 80 80 80 81 81 82 82 82 82 83 83 84 84 84 86 87 87 88 89 89 89 89 88 88 87 86 85 84 82 81 81 82 83 82 82 81 80 79 78 78 77 76 76 75 75 74 74 73 73 71 70 69 68 68 67 64 59 51 49 50 53 56 58 57 54 50 47 46 43 43 42 40 38 36 36 36 34 34 32 31 31 31 31 29 27
73 74 75 76 76 77 78 79 78 78 79 80 80 80 80 81 81 82 82 82 82 83 83 84 84 84 85 87 87 88 89 89 89 89 88 88 87 87 86 84 82 82 83 84 84 83 81 81 80 80 79 78 77 77 76 75 75 75 74 74 73 72 71 70 70 68 66 62 54 48 46 47 52 55 54 53 49 45 43 41 37 35 35 33 32 34 34 33 32 31 30 29 30 30 31 30 28
68 69 70 72 73 73 75 76 76 76 77 78 78 78 79 80 80 81 82 82 82 82 83 83 84 84 85 86 87 88 88 89 89 89 89 88 88 87 85 83 83 83 84 84 84 82 81 80 79 79 78 78 77 76 76 75 75 74 74 73 73 72 72 70 70 68 65 61 55 53 53 52 53 51 48 48 44 40 38 36 31 28 27 27 28 30 31 31 30 28 27 28 29 30 31 31 29
60 61 63 65 66 67 68 69 70 71 72 73 74 75 76 77 78 78 79 80 80 81 81 82 83 83 84 85 86 87 87 88 89 89 88 88 87 86 84 83 83 84 83 83 82 81 80 79 78 78 77 77 76 76 75 75 74 74 73 72 72 71 70 69 68 66 64 61 58 57 55 53 52 48 47 46 42 39 38 36 33 29 25 24 26 28 28 29 29 26 25 25 27 29 31 32 31
53 54 56 57 58 59 60 60 61 63 64 65 67 68 70 71 72 73 74 75 76 77 78 79 80 81 82 83 84 85 86 87 87 87 86 85 84 83 82 82 82 82 81 80 79 78 78 77 76 76 76 75 75 74 74 74 73 72 71 70 69 68 67 66 64 62 60 58 56 55 52 51 49 45 44 42 37 36 37 36 34 31 28 26 26 26 26 26 27 26 24 23 26 28 31 33 32
47 48 49 50 51 51 52 52 53 54 55 56 58 60 62 63 64 66 67 68 69 70 71 73 74 75 77 78 79 80 81 82 82 81 80 80 80 79 79 79 78 78 77 76 75 75 75 75 74 74 73 73 73 72 72 71 70 69 68 67 66 65 63 62 60 58 56 53 52 51 48 46 44 41 39 35 32 31 33 34 33 33 31 30 29 27 26 27 28 29 27 25 27 28 31 33 33
42 43 43 44 45 45 45 46 46 47 47 48 51 52 54 55 57 57 59 60 61 62 63 65 67 68 70 71 72 73 74 75 75 75 75 75 75 74 73 73 73 73 73 72 72 72 72 72 72 71 71 70 69 69 68 67 66 65 64 62 61 60 59 57 55 53 51 48 48 48 45 43 40 38 36 34 32 31 31 31 33 35 34 34 32 30 30 32 32 31 30 29 28 30 31 32 33
38 39 39 40 41 40 40 41 41 41 41 42 45 47 48 49 50 50 51 53 54 56 57 58 60 62 63 65 66 67 68 68 69 69 69 69 68 67 68 68 69 69 69 68 68 68 68 67 67 67 67 66 65 64 63 62 61 60 59 57 56 55 54 53 51 49 47 45 45 45 42 40 38 36 36 36 36 34 32 32 34 37 37 37 36 34 34 35 34 32 32 31 30 31 32 32 33
35 36 36 37 38 37 37 38 38 38 38 39 41 43 44 44 45 45 46 47 48 50 51 53 54 56 57 58 59 60 61 62 63 63 63 63 62 62 63 64 65 65 65 64 64 64 63 62 62 62 62 61 60 59 58 57 56 55 54 53 52 51 49 48 47 45 44 42 42 40 39 37 35 34 35 37 38 37 35 34 35 37 39 40 40 38 36 36 35 34 33 33 33 33 33 34 34
35 35 35 36 36 36 36 37 37 37 37 37 39 41 41 41 41 41 42 42 44 45 46 48 49 50 51 52 53 54 55 56 56 57 57 57 57 57 57 58 59 60 59 58 58 58 57 56 56 55 55 55 55 54 53 52 51 50 49 49 48 47 45 44 43 42 41 40 38 37 36 34 33 32 33 35 36 36 36 36 37 36 38 42 43 40 38 37 36 35 35 34 34 34 34 35 34
36 36 36 36 37 37 37 37 37 37 37 37 38 39 39 39 39 39 39 39 40 42 44 45 46 46 47 47 49 50 50 51 51 51 51 51 51 51 52 53 53 53 53 52 52 51 50 50 50 50 50 50 50 50 49 48 47 46 45 44 44 43 42 41 40 39 38 37 35 35 34 32 32 32 33 34 35 35 35 37 38 37 38 42 44 43 40 38 36 35 34 33 32 32 33 34 34
38 38 38 38 39 39 38 38 38 38 37 37 37 38 39 39 39 39 38 38 38 40 42 43 43 43 43 44 45 46 46 46 45 46 47 47 47 47 47 47 47 47 47 46 46 45 44 44 45 45 45 45 45 45 45 44 43 42 41 40 40 39 38 38 37 36 35 34 33 33 32 31 31 31 32 34 34 35 35 36 38 39 40 39 42 44 41 39 39 37 34 33 31 30 31 33 34
41 41 41 41 41 41 40 39 39 39 39 38 38 39 40 40 40 40 39 38 37 38 40 41 41 41 41 41 42 42 41 41 41 42 42 42 41 42 42 42 42 42 42 42 41 40 39 39 39 40 41 41 41 41 41 40 39 38 37 37 36 36 35 35 34 34 33 33 32 32 31 31 31 32 32 33 34 35 35 36 37 39 41 41 40 42 42 41 41 39 37 35 31 29 30 32 35
43 43 43 44 44 42 42 41 40 40 40 40 40 41 41 41 41 41 41 40 39 39 39 40 40 40 39 39 39 38 37 37 37 38 38 37 37 38 38 38 38 38 38 37 36 35 34 34 34 35 36 37 37 37 37 36 35 35 34 33 33 32 32 32 32 32 31 31 31 31 31 30 31 31 32 32 33 34 35 36 37 38 41 43 42 41 43 43 41 39 39 37 34 32 30 30 33
45 45 45 45 45 44 43 42 42 42 42 42 42 43 42 43 43 43 43 41 40 41 41 41 40 40 39 39 38 37 36 36 36 36 36 35 36 36 36 36 35 35 34 33 31 30 30 30 31 32 33 34 34 34 33 33 32 31 31 30 30 30 30 30 30 30 30 30 30 29 29 29 29 30 31 32 33 34 34 35 36 38 40 42 43 42 42 44 43 40 38 38 36 35 33 32 32
45 45 46 46 46 45 44 43 43 43 43 43 43 44 44 45 45 44 44 42 41 42 42 41 41 40 40 40 39 39 37 37 37 36 36 35 35 34 34 33 33 33 32 30 27 26 27 28 29 30 31 31 31 31 31 30 29 29 28 28 28 28 28 28 28 28 28 28 28 28 28 28 28 29 30 32 32 33 34 35 36 38 39 41 43 44 43 44 46 44 40 38 37 36 36 36 36
45 45 46 47 46 46 45 44 44 44 44 44 44 45 46 45 45 45 45 43 43 43 43 42 42 41 41 41 42 41 40 40 39 39 37 36 35 34 33 33 33 32 31 27 24 23 25 26 28 29 29 29 28 28 28 28 27 27 26 26 26 26 26 26 26 26 26 26 27 27 27 28 28 29 31 32 32 32 33 34 36 37 39 40 42 45 44 44 46 47 44 41 39 39 40 39 38
44 44 45 45 45 45 45 44 44 45 45 45 44 47 47 45 46 46 46 46 45 44 44 44 44 43 43 44 44 44 43 43 42 41 40 38 37 36 35 35 34 33 31 26 22 23 24 25 27 28 27 26 26 26 27 26 26 25 25 25 24 24 24 24 25 25 25 26 26 27 27 28 29 29 31 31 32 32 34 35 36 38 39 40 41 44 45 45 45 47 48 45 42 41 42 41 40
42 42 42 42 42 42 43 43 43 45 45 45 45 48 48 46 47 48 47 48 47 46 46 46 46 46 45 46 46 46 46 45 45 44 43 42 40 38 38 37 36 35 32 27 23 24 25 25 26 26 26 25 25 25 26 25 25 25 25 25 25 25 25 25 26 26 26 26 27 27 28 29 29 30 31 32 32 32 34 35 37 38 39 39 40 42 45 46 45 46 48 48 46 44 44 43 41
40 40 39 39 39 39 40 40 41 42 43 44 45 47 48 47 48 49 48 49 49 47 47 48 48 48 48 48 48 48 48 48 48 47 46 45 44 43 42 41 40 38 36 32 27 27 28 27 26 26 26 26 26 26 26 25 26 26 26 26 27 27 27 27 27 27 28 28 28 28 29 30 31 32 32 33 33 33 34 35 37 38 39 40 40 41 42 45 46 47 48 49 48 48 46 44 43
40 39 38 38 38 38 38 38 39 39 40 41 42 44 46 46 48 49 49 48 49 48 49 49 49 49 49 49 49 49 50 50 50 49 49 47 46 46 45 44 43 41 40 37 32 31 32 31 29 28 28 28 28 28 27 27 27 27 28 28 29 30 30 30 29 29 30 30 30 30 30 31 32 33 33 34 34 34 34 35 37 38 39 39 40 40 41 43 45 47 49 50 50 50 49 46 44
41 39 39 39 39 39 38 38 39 38 38 39 40 41 41 41 43 46 46 46 46 47 48 49 49 50 50 49 49 49 49 50 51 51 50 50 49 48 47 46 46 44 44 41 37 36 36 35 33 32 31 30 30 30 30 30 29 29 30 30 31 32 33 32 32 31 32 32 32 31 31 32 33 33 34 34 35 35 35 35 37 38 38 39 39 40 40 40 43 46 49 51 51 52 52 50 47
43 41 42 42 41 41 40 40 40 40 39 40 40 40 39 39 41 44 45 44 44 45 46 47 48 49 49 49 49 49 49 50 51 51 52 52 50 49 48 48 47 45 45 44 41 40 39 38 37 36 34 34 33 32 32 32 33 33 33 33 34 34 35 35 34 34 33 33 33 33 33 33 33 34 35 35 35 35 36 36 37 37 38 38 39 39 40 40 40 43 47 50 52 53 55 53 50
45 44 45 45 44 44 43 43 43 42 42 42 42 42 40 41 42 44 46 45 44 44 44 44 45 46 47 47 48 48 49 50 51 51 52 52 51 49 49 49 47 47 46 45 43 42 41 41 41 40 39 38 37 36 35 35 36 36 37 37 37 37 38 38 37 37 36 36 35 35 35 34 34 35 35 35 36 36 36 37 37 38 38 38 39 39 40 40 40 41 44 48 51 53 56 56 52
47 48 48 47 48 48 46 46 46 45 46 45 45 45 43 44 45 46 48 49 48 47 46 46 45 45 46 45 46 47 47 48 49 51 52 52 51 51 51 50 49 49 48 46 45 44 43 43 43 43 43 42 42 41 40 39 39 39 39 40 40 40 40 40 40 40 40 39 38 38 37 36 36 36 36 36 36 37 37 38 38 38 39 39 39 39 40 41 41 42 43 45 49 52 55 57 55
49 50 50 49 50 50 48 49 49 48 50 49 48 48 46 47 49 49 51 52 53 52 51 50 49 48 48 47 47 47 47 47 48 49 50 51 52 52 52 52 51 51 50 48 48 47 46 45 44 45 45 46 46 45 44 44 43 42 42 42 42 42 42 42 43 43 42 42 41 41 40 39 38 38 37 37 38 38 39 39 39 39 40 40 40 40 41 41 42 42 43 44 47 50 53 56 57
51 51 51 50 52 52 50 51 50 50 52 51 49 49 49 50 52 53 53 54 55 56 56 54 53 52 51 50 50 50 50 49 49 49 50 51 51 52 52 52 52 52 51 50 50 49 48 47 46 46 46 47 47 48 47 47 46 46 46 45 44 44 44 44 44 44 44 44 43 43 42 41 40 39 39 39 39 39 40 41 41 41 41 41 41 41 42 42 43 43 44 44 46 48 51 54 57
52 51 51 52 52 53 51 51 51 51 53 52 50 50 51 52 54 54 54 55 56 57 58 57 56 55 54 54 53 54 54 53 52 52 53 53 53 53 53 53 53 53 53 51 51 50 49 49 48 47 47 48 48 48 48 48 48 48 48 48 47 47 47 46 46 46 46 46 46 45 45 44 43 42 41 41 41 41 42 42 43 43 43 43 43 43 43 44 44 45 45 45 46 47 49 52 54
52 51 52 52 52 53 53 52 51 52 53 52 51 51 53 54 55 55 56 57 57 57 58 58 58 57 57 56 56 56 56 56 56 55 55 55 55 55 56 56 56 55 55 54 52 52 51 51 50 49 49 49 49 49 49 49 49 49 49 49 49 49 50 50 49 49 49 48 48 48 47 47 46 45 45 44 43 43 43 44 44 45 45 45 45 45 45 45 46 46 47 47 47 47 49 51 53
52 52 52 52 52 53 54 53 53 53 53 53 52 53 54 55 56 57 58 58 57 58 59 59 59 59 59 58 58 58 58 58 58 58 57 57 57 58 58 59 59 59 58 56 55 54 54 53 53 52 51 51 51 51 50 50 50 50 50 50 50 51 51 51 51 51 51 51 51 50 50 49 49 48 48 47 47 46 45 45 46 47 47 47 47 47 48 48 48 48 49 49 49 49 50 51 53
52 52 52 52 53 54 55 54 53 54 54 54 53 54 55 57 59 60 59 58 58 58 59 60 60 60 60 60 60 60 59 59 60 59 58 58 59 60 60 61 62 61 60 59 58 57 57 57 57 57 55 55 54 54 52 52 52 51 51 51 52 52 53 52 52 53 53 52 52 52 52 51 51 50 50 50 50 49 49 48 48 48 49 49 50 50 50 50 51 51 51 51 51 51 52 52 52
51 52 52 53 53 54 55 55 54 55 55 54 54 54 55 58 60 60 59 58 58 58 59 59 60 60 60 60 60 60 60 60 60 60 59 59 60 61 62 62 62 62 61 60 60 59 59 60 60 60 59 58 58 57 56 55 55 54 53 53 54 54 54 54 54 54 54 53 53 53 53 53 53 53 52 52 52 52 52 51 51 50 51 52 52 52 52 52 53 53 53 53 53 53 54 54 54
52 52 53 53 54 54 55 55 55 55 55 55 53 52 54 58 58 57 58 57 57 57 57 57 58 58 58 58 59 59 60 60 60 60 60 60 60 61 62 62 63 62 62 62 62 61 61 61 62 63 63 61 59 58 58 59 59 59 58 58 57 57 56 56 55 55 54 54 54 54 54 54 55 55 55 55 55 54 54 54 54 54 53 54 54 55 55 55 55 55 55 55 56 55 55 56 56
53 54 54 54 54 55 55 54 55 55 55 54 53 50 52 56 55 54 56 56 56 55 55 55 55 55 55 56 56 57 58 59 59 59 59 59 59 60 60 61 61 62 62 62 62 62 62 63 63 63 64 63 61 60 60 60 61 62 62 61 61 60 60 59 59 58 57 56 55 55 55 56 56 56 57 57 57 57 57 57 57 57 57 56 57 57 57 58 58 58 58 58 57 58 58 57 58
Wind_Direction
257 258 259 259 260 261 262 262 263 264 265 265 265 266 266 266 266 267 268 269 269 270 271 271 272 273 273 274 274 275 275 276 276 277 277 278 278 278 279 279 280 281 281 282 283 283 284 285 285 286 287 288 289 290 290 291 292 292 293 293 293 295 296 296 297 298 298 299 299 300 300 301 302 302 302 302 302 303 302 302 303 303 303 304 304 304 304 304 304 304 304 305 305 306 306 306 306
258 258 259 259 260 261 261 262 263 264 264 265 265 265 266 266 266 267 268 268 269 269 270 270 271 272 272 273 274 274 275 275 275 276 276 277 278 278 279 280 280 281 282 282 283 283 284 285 286 287 287 288 289 290 290 291 292 292 293 293 294 295 296 296 297 298 298 298 299 299 300 301 301 301 301 301 301 301 301 301 302 302 303 303 303 303 303 303 303 303 303 303 304 305 305 305 304
258 258 259 259 260 261 261 262 262 263 264 264 264 265 265 266 266 267 267 268 269 269 269 270 270 271 272 272 273 274 274 274 275 275 276 277 277 278 279 280 280 281 282 282 283 283 284 285 286 286 287 288 289 289 290 291 292 292 293 293 294 295 296 296 297 297 298 298 298 299 299 299 300 300 299 300 300 300 300 300 301 301 302 302 302 303 303 302 302 302 302 303 303 304 304 303 303
258 258 259 259 259 260 261 261 262 262 263 264 264 264 265 265 266 266 267 267 268 269 269 269 270 271 271 272 272 273 273 274 274 275 276 277 277 278 279 280 280 281 281 282 283 283 284 285 286 286 287 287 288 289 290 291 291 292 292 293 294 294 295 296 296 297 297 297 298 298 298 298 298 298 298 299 299 299 300 300 300 301 301 301 301 302 302 301 302 301 301 302 303 303 302 302 301
258 258 259 259 260 260 260 261 261 262 262 263 264 264 265 265 265 265 266 267 268 268 269 269 269 270 271 271 271 272 272 273 274 275 275 276 277 278 278 279 280 280 281 281 282 283 284 285 285 286 286 287 288 288 289 290 291 291 291 292 293 294 295 295 295 296 296 296 297 297 297 296 296 297 297 298 298 298 299 299 300 300 300 300 300 300 300 300 301 300 301 302 302 301 300 300 300
258 258 259 259 260 260 261 261 261 262 262 263 263 264 264 265 265 265 266 266 267 268 268 269 269 269 270 270 270 271 272 272 273 274 275 276 277 277 278 279 279 280 280 281 282 282 283 284 284 285 286 286 287 288 289 289 290 290 291 292 293 293 293 294 294 294 294 295 295 295 295 295 296 296 297 297 297 297 298 298 298 298 299 299 299 299 299 300 300 299 300 301 300 299 299 299 298
258 258 259 259 260 260 261 261 261 262 262 263 263 264 264 265 265 266 266 266 267 268 269 269 269 269 269 270 270 271 271 272 273 274 274 275 276 277 277 278 278 279 280 280 281 282 282 283 283 284 285 286 287 287 288 288 289 289 290 291 291 292 292 292 292 293 293 293 294 294 294 295 295 296 297 297 296 296 296 297 297 298 298 298 298 298 299 299 298 299 300 300 299 298 299 298 297
258 259 259 260 260 260 261 261 262 262 262 263 263 264 265 265 266 267 267 267 267 268 269 269 269 269 270 270 270 270 271 272 273 273 274 275 275 276 276 277 277 278 279 280 280 281 281 282 283 283 284 285 286 287 287 287 288 289 289 290 290 290 290 291 291 292 292 292 293 293 294 294 295 295 296 295 295 295 296 296 297 297 296 296 297 298 298 298 298 299 299 298 298 298 297 296 295
259 259 260 260 260 261 261 262 262 262 263 263 263 264 265 266 267 267 267 267 267 268 269 269 270 270 270 270 270 271 271 272 273 273 273 274 274 275 275 276 277 277 278 279 279 280 280 281 282 282 283 284 285 285 286 287 287 288 289 289 289 289 290 290 291 291 291 291 292 292 293 293 294 294 294 294 295 295 295 295 295 295 294 295 296 297 297 297 298 298 298 297 297 297 296 294 293
260 260 260 261 261 261 261 262 262 263 263 263 264 264 265 267 267 267 267 267 268 268 269 269 270 270 271 271 271 271 272 272 272 273 273 273 274 274 275 275 276 276 277 278 278 279 279 280 281 281 282 283 284 285 286 286 287 288 288 288 288 288 289 290 290 290 290 289 291 291 292 292 292 293 293 293 294 294 294 294 294 293 293 295 296 296 297 297 298 297 297 297 296 295 293 293 291
261 261 261 262 262 262 262 262 263 263 263 263 264 265 266 267 267 267 268 268 268 268 269 269 270 270 270 271 271 271 272 272 272 272 273 273 273 274 274 275 275 276 276 277 278 278 279 279 280 281 282 282 283 285 286 286 287 287 287 287 286 287 288 289 289 289 288 289 290 290 291 291 291 291 292 292 292 292 293 293 292 292 293 294 295 296 297 297 297 297 296 295 295 293 292 292 288
262 262 262 262 263 263 263 263 263 263 263 264 264 265 266 267 267 268 268 268 269 269 268 269 269 270 270 271 271 272 272 272 272 272 272 273 273 274 274 275 275 276 276 277 277 278 278 279 280 281 281 282 284 285 286 286 286 286 285 285 285 287 287 287 287 287 287 288 289 289 289 289 290 290 291 291 291 291 291 291 291 291 293 294 294 296 296 296 295 296 295 294 293 291 291 290 286
263 263 263 263 263 263 263 263 263 264 264 264 265 265 266 267 267 268 268 269 269 269 269 269 269 270 271 271 271 271 271 271 272 272 272 273 273 274 274 275 275 276 276 277 278 278 278 279 280 281 281 282 284 284 285 284 284 284 284 284 286 286 286 285 286 286 287 288 288 288 288 289 289 289 290 290 290 290 290 290 291 291 292 292 293 294 295 295 295 294 293 292 291 290 289 286 284
263 263 263 263 264 264 264 264 264 264 264 265 266 266 266 267 267 268 268 269 269 269 269 269 269 270 270 271 271 271 271 271 272 272 272 273 274 274 274 275 276 276 277 277 278 278 278 279 280 281 281 282 283 283 283 283 283 283 282 284 285 285 284 285 286 286 286 287 287 287 288 288 288 288 289 289 289 289 288 289 290 291 291 291 293 293 293 294 293 292 292 290 289 289 286 284 285
263 263 263 264 264 264 264 264 264 264 265 266 266 266 266 267 267 268 268 269 269 269 269 269 269 269 269 270 270 270 271 271 272 272 273 273 274 274 275 276 276 276 277 277 277 278 278 279 280 281 281 282 282 281 281 281 280 280 281 282 283 283 284 284 285 285 285 285 285 287 288 288 288 288 288 288 288 288 287 289 291 290 291 292 293 292 292 292 291 290 289 288 288 286 283 283 285
262 263 263 263 263 263 264 264 264 265 265 266 266 266 266 266 266 267 267 268 268 269 269 269 269 269 269 269 270 270 271 271 272 272 273 273 274 275 275 276 276 276 276 276 277 277 278 279 280 281 281 281 281 280 280 279 279 279 280 281 281 281 282 283 284 284 284 284 285 286 287 287 288 286 286 288 288 287 287 289 290 289 291 292 291 291 291 291 289 288 287 287 285 282 281 283 283
262 262 262 262 263 263 263 263 264 265 265 266 266 266 265 265 265 265 266 267 267 267 268 268 268 268 268 269 269 270 271 271 272 272 273 274 274 275 275 275 275 275 275 276 277 278 278 279 280 280 280 280 280 279 278 278 278 279 280 280 280 281 281 282 283 283 284 284 285 286 286 285 284 283 285 286 285 286 288 289 288 289 290 289 289 289 289 289 288 287 285 284 282 280 281 281 280
261 261 262 262 262 262 263 263 264 264 264 264 264 264 264 263 263 264 264 265 266 266 267 267 267 268 268 269 269 269 270 271 272 273 273 274 274 274 273 274 274 275 275 276 277 277 278 279 279 279 279 279 279 278 278 278 279 279 280 281 281 281 281 281 282 282 283 283 285 285 282 280 280 282 282 282 284 286 287 288 288 288 287 287 288 288 288 286 285 284 282 281 279 278 278 278 276
261 261 261 261 261 262 262 262 263 263 263 263 263 262 262 262 262 262 263 263 264 265 266 266 267 267 268 268 269 269 270 271 272 273 273 272 272 272 273 273 274 275 275 276 276 277 278 278 278 278 278 278 278 278 279 279 280 280 281 281 281 281 281 281 281 282 283 284 285 282 278 278 278 278 279 281 283 283 284 285 285 284 285 287 287 287 286 285 283 281 280 278 276 274 274 274 272
261 261 261 261 261 261 261 261 262 262 262 262 261 262 262 262 262 262 262 262 263 264 265 265 266 267 268 268 269 270 270 271 271 271 271 271 271 272 273 274 274 275 275 276 277 277 278 278 278 277 277 277 278 279 279 280 281 281 281 280 280 280 281 281 281 281 282 281 280 277 278 279 276 275 278 280 280 280 282 281 281 283 285 285 285 285 284 283 282 279 277 275 273 270 269 269 267
260 260 260 260 261 261 261 261 261 261 261 261 261 261 262 262 262 261 261 261 262 263 264 265 266 267 268 269 269 269 270 270 270 270 270 271 272 272 273 274 274 275 275 276 277 278 278 277 277 277 277 277 278 279 280 280 281 281 281 280 280 280 280 280 280 282 280 276 275 274 277 278 277 278 279 279 279 279 279 279 281 283 284 283 283 283 283 282 281 278 276 273 270 267 265 264 262
260 260 260 260 261 261 261 261 261 261 261 261 261 261 261 262 262 261 261 261 261 262 263 265 266 267 268 268 268 268 268 268 269 269 270 271 272 272 273 273 274 274 275 276 277 277 277 276 276 277 277 277 278 279 280 280 280 280 280 279 279 279 280 280 280 279 276 274 275 275 276 277 279 280 279 279 279 279 279 280 282 282 281 282 281 281 281 280 279 278 276 272 269 266 263 260 257
260 260 260 261 261 261 261 261 261 261 261 261 261 261 261 261 261 261 261 261 261 261 262 263 264 265 266 266 267 267 268 268 269 270 270 271 271 272 272 273 273 274 276 277 277 276 276 275 276 276 277 278 278 279 279 279 279 279 279 279 279 279 279 279 278 274 273 276 278 278 279 280 280 279 279 280 279 280 280 280 280 279 279 279 279 278 278 277 277 276 275 271 267 264 261 256 252
260 260 260 260 261 261 261 260 260 260 260 260 260 260 260 261 261 261 261 261 261 261 261 262 263 263 264 265 266 267 268 268 269 269 270 270 271 271 272 272 273 275 276 276 275 275 275 276 276 277 277 278 278 278 278 278 278 278 278 278 278 278 278 277 276 276 277 278 279 281 282 281 281 280 280 280 280 280 280 280 279 277 277 277 276 276 274 273 272 271 270 267 264 261 258 253 248
260 260 260 260 260 260 259 259 259 259 259 260 260 260 260 260 261 261 261 261 261 261 261 262 262 262 263 264 265 266 266 267 268 268 269 270 270 271 271 272 273 274 274 274 274 274 275 276 277 277 277 277 277 277 277 277 277 277 277 277 277 277 277 277 277 277 278 279 280 280 278 277 278 280 280 279 280 281 279 278 277 276 274 272 272 270 268 267 266 264 262 262 259 253 252 251 245
260 260 259 259 259 259 259 259 259 259 259 260 260 260 260 260 260 260 261 261 261 261 261 261 262 262 262 263 264 264 265 266 267 268 268 269 269 270 271 272 273 273 273 273 273 274 275 276 276 276 276 276 276 276 276 276 276 276 277 277 277 277 277 277 277 278 278 279 280 277 274 272 276 279 279 277 278 278 276 274 274 274 269 264 263 262 264 265 262 259 256 256 254 247 244 246 244
260 259 259 258 258 258 258 259 259 259 259 259 260 260 260 260 260 260 260 260 260 261 261 261 262 262 262 262 263 264 264 265 266 267 267 268 269 270 271 272 272 272 272 272 273 274 275 275 275 275 275 275 275 275 275 275 276 276 276 277 277 277 277 278 278 279 279 279 277 274 272 272 274 276 275 274 273 271 269 267 265 262 258 257 256 254 256 260 261 258 254 251 250 245 237 238 241
259 259 258 258 258 258 258 259 259 259 260 260 260 260 259 259 259 259 260 260 260 260 260 261 261 261 262 262 263 263 264 264 265 266 267 268 269 270 271 271 271 271 272 272 273 274 274 273 273 273 274 274 274 275 275 275 275 276 276 276 277 277 278 278 278 279 279 278 276 274 273 273 272 271 269 270 270 266 263 259 254 249 247 249 249 247 246 252 257 256 253 249 246 243 235 232 237
259 258 258 258 258 258 259 259 259 259 260 260 260 259 259 259 259 259 259 260 260 260 261 261 261 262 262 262 263 263 264 264 265 266 268 268 269 270 270 270 270 271 271 272 272 272 273 272 272 273 273 273 274 275 275 276 276 276 276 276 277 277 277 277 278 278 277 277 276 275 273 272 271 269 267 268 269 264 258 254 249 242 237 238 242 242 243 249 252 251 251 248 242 241 236 229 232
260 259 259 259 259 258 259 259 259 259 259 260 260 259 259 259 259 259 260 260 261 261 261 261 261 262 262 262 263 264 264 265 266 267 267 267 268 269 269 270 270 271 271 271 271 271 271 272 272 272 273 273 274 275 275 276 276 276 276 276 276 276 276 276 276 276 275 275 276 274 271 270 269 267 264 263 264 260 253 249 244 237 231 232 236 235 240 246 245 242 245 246 243 243 239 229 229
261 260 260 260 259 258 258 258 258 258 258 259 259 259 259 259 259 260 260 260 260 261 260 261 261 261 261 262 262 263 264 265 265 266 266 267 268 269 269 269 269 269 270 270 270 270 271 272 273 273 273 273 274 274 275 275 275 275 275 275 275 274 274 274 274 273 272 271 270 269 268 267 266 264 260 255 255 252 248 243 238 235 229 228 231 228 232 240 241 238 239 242 244 244 242 232 231
262 262 261 260 259 258 257 257 257 257 257 258 259 259 259 260 260 260 261 261 260 260 260 260 260 261 261 261 262 263 263 264 265 265 266 267 268 268 268 268 268 268 269 269 270 270 271 272 273 274 274 273 273 273 273 273 273 273 273 273 273 272 272 272 271 270 269 267 265 264 264 263 261 258 255 252 250 248 245 241 235 232 228 227 229 226 228 235 239 237 236 240 243 244 242 236 236
262 262 261 260 260 258 257 256 256 256 256 257 259 260 261 261 262 261 261 261 261 260 260 260 260 260 261 261 262 263 264 265 265 266 267 267 268 268 268 268 268 269 269 270 270 271 271 272 272 273 273 273 272 271 271 271 271 271 271 270 270 270 270 269 268 267 266 265 263 262 261 259 257 253 250 249 248 246 243 239 234 230 226 225 227 226 227 232 235 234 234 237 240 241 240 237 237
262 261 261 260 260 259 258 257 256 256 255 256 258 261 262 263 263 262 262 262 261 261 261 260 261 261 261 262 263 264 264 265 266 267 268 268 268 268 268 268 269 269 269 270 270 271 271 271 271 271 271 271 271 270 269 268 268 268 268 268 267 267 267 266 266 265 264 263 262 261 259 257 254 250 247 246 246 244 240 236 234 231 227 225 225 225 225 228 230 230 231 235 237 237 237 236 235
262 262 261 260 260 259 258 257 257 256 256 257 258 261 262 263 263 262 262 261 262 262 262 261 262 262 263 263 264 264 264 265 266 267 267 267 267 267 267 267 268 268 268 269 269 270 270 270 269 268 268 268 268 268 267 266 265 265 265 265 265 265 264 264 264 263 263 262 260 259 258 255 252 249 246 245 244 242 239 235 234 232 229 225 224 223 224 227 228 228 229 232 235 236 235 234 233
261 260 260 259 259 258 258 258 258 258 258 258 258 259 260 261 261 261 261 261 262 263 264 263 263 263 263 263 264 264 265 266 267 267 267 267 267 266 266 266 267 268 268 268 268 269 268 267 267 266 265 264 264 265 266 265 264 263 263 263 263 263 263 262 262 262 261 260 259 257 255 253 250 247 244 243 243 241 238 235 233 232 229 225 224 223 223 227 229 228 227 227 230 235 236 236 234
259 259 259 259 258 259 259 259 259 260 259 259 258 258 258 259 260 260 260 260 261 263 265 265 265 265 265 265 265 266 268 268 268 268 268 268 267 267 266 266 267 268 268 268 268 267 266 265 265 264 263 261 261 262 264 264 264 263 262 261 261 261 260 260 260 259 259 257 256 254 252 250 247 245 243 242 241 241 239 236 233 231 228 225 224 222 221 223 227 227 226 224 224 231 236 237 236
259 259 259 259 260 260 260 260 260 260 260 260 258 257 258 258 259 259 259 260 260 261 263 265 266 267 267 268 268 269 270 269 268 268 268 268 267 267 267 267 268 269 269 269 268 267 266 265 263 263 262 261 261 260 260 262 262 262 262 261 260 259 258 258 257 256 255 254 253 251 249 247 245 243 242 241 240 239 238 236 234 231 229 226 224 221 219 219 221 225 226 223 221 223 227 231 235
259 259 260 260 261 261 260 261 261 261 261 260 259 258 258 258 258 259 260 261 261 261 262 264 266 268 269 270 271 270 270 269 269 268 268 268 268 268 269 269 269 269 269 269 269 268 266 265 263 262 262 262 262 261 260 259 260 260 260 260 258 257 256 255 254 253 253 252 251 250 248 246 243 242 241 239 239 239 238 236 234 232 230 227 224 221 219 219 220 223 224 222 219 218 220 224 228
259 259 259 259 260 260 261 261 261 260 260 260 259 258 258 258 259 260 261 262 262 262 262 263 265 267 269 270 270 270 269 269 269 269 269 270 270 271 271 271 269 268 268 269 270 269 267 265 263 262 262 263 264 263 262 261 260 258 257 256 255 254 253 252 251 250 250 250 250 249 248 246 242 240 239 239 239 238 237 235 234 232 231 229 225 221 219 220 221 222 223 223 219 216 217 222 225
259 259 259 259 260 260 260 260 260 260 259 259 259 259 259 259 260 260 261 261 260 261 262 262 263 265 266 267 267 267 268 268 268 269 270 271 271 272 272 271 270 269 269 270 271 269 267 266 264 264 263 263 264 264 264 263 261 259 256 254 253 252 252 252 252 251 250 250 250 250 249 247 243 240 240 240 239 237 236 235 233 232 232 230 227 224 221 220 221 221 222 223 221 218 217 219 223
259 259 259 260 260 260 260 259 259 258 258 259 259 259 259 260 260 260 260 259 259 259 260 261 261 262 263 263 264 265 265 266 267 268 269 269 269 270 270 270 270 270 270 270 268 266 265 264 265 265 265 264 263 263 263 262 261 260 259 257 256 254 254 254 253 253 251 251 250 250 249 248 246 244 243 242 240 238 236 234 232 231 232 231 229 227 224 222 221 221 222 223 222 221 221 220 220
260 260 260 261 261 261 260 260 259 258 258 258 257 258 259 259 259 259 259 260 259 258 258 259 259 260 260 261 262 263 264 265 265 266 266 267 267 267 266 267 268 269 269 268 264 262 262 260 261 264 264 263 262 261 260 259 259 259 259 259 259 258 256 254 254 253 253 251 249 249 248 247 246 245 245 245 243 239 236 234 233 232 231 231 229 228 227 225 223 222 222 223 223 222 223 224 221
260 260 260 261 260 260 261 260 260 259 258 257 256 257 258 258 258 259 259 259 260 260 258 258 258 258 259 260 261 262 263 264 264 265 265 265 266 265 265 266 267 267 268 267 263 260 259 258 257 258 260 260 259 258 258 257 256 257 257 257 258 258 256 255 254 254 255 253 251 248 246 245 244 243 244 245 245 242 238 235 233 233 232 232 230 229 228 228 226 224 222 223 224 223 223 227 225
260 260 260 260 259 259 259 259 259 259 259 258 257 258 259 259 260 261 260 259 260 260 260 259 259 259 259 260 261 263 264 265 265 265 265 265 265 264 265 266 266 267 267 268 265 261 260 259 257 254 254 256 257 258 258 257 256 255 255 256 256 257 258 257 255 254 254 255 254 250 247 245 244 243 243 244 244 243 240 237 235 234 234 233 231 231 229 228 228 227 225 223 223 223 223 226 226
260 260 260 260 260 260 259 259 259 259 260 260 260 260 262 262 263 263 262 260 259 259 259 260 260 260 261 261 262 263 264 265 265 265 265 265 264 265 265 265 266 267 268 269 266 263 263 263 261 258 254 254 255 257 258 259 258 257 256 257 258 259 259 259 257 254 252 252 253 252 250 247 246 245 244 243 243 243 241 239 237 236 235 235 233 232 231 230 229 228 228 227 225 224 223 225 224
260 261 261 261 261 261 261 261 261 261 261 261 262 263 264 264 264 265 264 262 260 259 259 259 260 261 261 262 262 262 263 264 265 265 265 265 265 266 266 266 266 267 267 268 266 264 264 264 264 262 259 256 255 254 255 256 257 258 258 258 258 259 260 259 258 255 253 251 250 250 250 249 247 247 246 245 244 242 241 240 238 237 237 237 236 235 233 232 231 230 230 230 228 226 225 226 225
260 260 260 260 260 260 260 261 261 261 261 261 262 263 263 264 264 265 266 265 263 262 261 260 260 261 262 262 262 263 263 263 264 265 266 267 267 267 266 266 266 266 266 266 266 264 263 262 262 262 260 258 256 254 253 253 253 254 254 255 256 257 258 258 258 257 255 253 251 250 250 249 248 248 247 246 245 243 241 240 239 238 239 239 238 237 236 234 233 232 231 231 231 230 229 229 228
260 260 260 260 261 260 260 260 261 261 261 261 262 263 262 263 263 264 265 266 266 264 263 262 261 261 261 261 262 262 262 263 264 265 266 268 268 268 267 267 266 265 264 264 263 262 260 259 259 259 258 257 256 254 253 252 251 251 251 251 252 253 254 255 256 257 256 255 253 252 251 251 250 249 248 247 246 244 242 241 240 239 239 240 240 239 238 237 235 234 233 232 232 232 231 232 230
258 259 260 260 261 261 261 261 261 262 262 261 261 262 263 263 262 262 263 265 266 266 265 264 263 262 262 261 261 261 260 260 261 263 264 265 266 267 268 268 267 266 264 263 262 261 259 258 257 256 256 256 255 254 253 253 252 251 250 249 249 250 251 252 253 255 255 255 255 254 253 252 251 250 249 248 247 245 243 242 241 240 239 240 240 241 240 239 238 236 235 233 232 233 232 233 233
258 258 259 260 260 260 260 261 261 261 261 261 261 262 262 262 261 262 262 264 265 266 266 266 265 265 264 263 262 262 261 260 260 260 261 262 263 264 265 266 266 266 265 264 263 262 261 259 258 256 256 255 255 255 254 253 252 251 250 249 249 249 249 250 251 252 253 253 253 254 253 252 251 251 250 249 248 246 244 243 242 241 240 240 240 241 241 240 239 238 237 236 234 233 234 234 234
259 259 259 259 260 260 260 260 260 260 261 261 261 261 261 260 261 261 262 262 263 265 266 267 267 266 266 265 264 263 263 262 261 261 261 262 262 262 263 263 264 264 264 264 264 263 263 261 260 258 257 256 256 255 255 254 253 252 251 250 249 249 249 249 250 250 251 251 251 252 252 252 251 250 250 250 249 248 246 244 243 242 241 241 241 241 241 241 240 239 239 238 236 235 234 235 235
260 260 260 260 261 262 261 260 260 261 262 262 262 261 261 261 261 261 261 261 261 263 264 265 266 266 265 265 264 263 263 263 262 262 262 262 263 263 263 263 263 263 264 264 264 264 264 263 263 261 260 259 257 256 256 255 254 253 252 251 251 250 250 249 249 249 249 250 250 250 250 250 250 249 249 249 249 248 247 246 244 243 242 242 242 241 241 241 241 241 240 239 238 237 236 235 236
261 261 261 261 261 262 262 262 261 261 262 263 263 262 262 262 262 261 261 261 262 262 263 264 264 264 264 264 264 263 263 263 262 262 262 262 263 263 263 263 263 263 263 263 263 264 264 264 263 263 262 261 260 259 257 257 256 255 254 253 252 251 250 250 250 249 249 248 248 249 249 249 249 249 249 249 249 248 248 247 245 244 243 242 242 243 242 242 241 241 240 239 239 238 237 236 236
263 263 263 263 262 262 263 263 263 263 263 263 263 263 263 263 262 262 261 261 262 262 262 263 263 264 263 263 263 263 263 262 263 262 261 261 262 262 261 262 262 263 264 264 264 263 263 263 263 262 261 261 261 261 260 259 258 258 256 255 254 253 252 251 250 250 250 249 248 248 248 249 249 249 249 249 249 248 248 247 246 245 244 244 243 243 243 243 242 241 241 240 239 239 238 238 236
264 265 265 265 265 265 265 265 265 265 265 264 264 264 265 264 263 263 263 262 261 261 261 261 262 262 262 262 262 262 262 261 261 261 261 260 260 261 261 261 261 262 263 263 262 262 263 263 262 262 261 259 259 260 260 260 259 259 258 257 256 255 254 253 252 252 251 251 250 250 249 249 249 249 250 250 250 249 248 247 247 246 245 245 244 244 244 243 243 242 241 241 241 240 239 239 238
264 264 265 265 266 266 266 267 266 266 265 265 264 264 265 264 265 265 265 263 261 261 261 261 261 262 262 262 261 261 261 260 260 260 259 258 258 259 260 260 261 261 261 261 261 261 260 261 261 261 261 259 258 258 259 259 259 258 257 256 256 256 256 255 255 254 253 252 251 251 250 250 249 249 249 249 250 250 249 248 247 247 246 246 245 245 245 245 244 243 243 242 241 241 241 240 240
266 265 265 265 265 265 266 266 266 266 266 266 265 263 263 263 264 264 264 264 263 262 261 261 261 261 261 262 262 261 261 261 260 260 260 259 259 258 259 260 261 262 262 262 262 261 261 260 261 261 261 261 260 259 257 257 257 257 257 256 256 256 256 256 256 255 254 253 252 251 251 250 250 249 248 248 248 249 249 248 248 247 247 247 247 246 246 246 246 245 244 244 242 242 242 242 241